Location: Dodgeville, WI 53533, USA
(43.0344°N, 90.0900°W)
Time: 23:16:22
(UTC-06:00)

ISS - Pass Details

Date: 24 January 2021
Orbit: 417 x 422 km, 51.6° (Epoch: 08 March)

Event Time Altitude Azimuth Distance (km) Brightness Sun altitude
Rises 19:32:15 0° 292° (WNW) 2,373 1.1 -27.2°
Reaches altitude 10° 19:34:48 10° 311° (NW) 1,509 -0.4 -27.7°
Enters shadow 19:35:21 13° 319° (NW) 1,359 -0.7 -27.8°
